TimeCST,TemperatureF,Dew PointF,Humidity,Sea Level PressureIn,VisibilityMPH,Wind Direction,Wind SpeedMPH,Gust SpeedMPH,PrecipitationIn,Events,Conditions,WindDirDegrees,DateUTC
12:15 AM,-9.4,-14.8,77,30.32,10.0,NNW,4.6,-,N/A,,Clear,340,2013-12-23 06:15:00
12:34 AM,-9.4,-14.8,77,30.32,10.0,NNW,4.6,-,N/A,,Mostly Cloudy,330,2013-12-23 06:34:00
12:54 AM,-11.2,-16.6,77,30.33,10.0,NW,3.5,-,N/A,,Scattered Clouds,310,2013-12-23 06:54:00
1:15 AM,-11.2,-16.6,77,30.33,10.0,NNW,3.5,-,N/A,,Scattered Clouds,330,2013-12-23 07:15:00
1:34 AM,-11.2,-16.6,77,30.34,10.0,Calm,Calm,-,N/A,,Scattered Clouds,0,2013-12-23 07:34:00
1:54 AM,-11.2,-16.6,77,30.34,10.0,NW,3.5,-,N/A,,Scattered Clouds,320,2013-12-23 07:54:00
2:15 AM,-13.0,-16.6,84,30.35,10.0,NW,4.6,-,N/A,,Scattered Clouds,320,2013-12-23 08:15:00
2:34 AM,-14.8,-18.4,84,30.35,10.0,Calm,Calm,-,N/A,,Scattered Clouds,0,2013-12-23 08:34:00
2:54 AM,-14.8,-18.4,84,30.36,10.0,NW,3.5,-,N/A,,Mostly Cloudy,310,2013-12-23 08:54:00
3:15 AM,-14.8,-18.4,84,30.36,10.0,NW,3.5,-,N/A,,Scattered Clouds,310,2013-12-23 09:15:00
3:34 AM,-14.8,-20.2,77,30.37,10.0,Calm,Calm,-,N/A,,Scattered Clouds,0,2013-12-23 09:34:00
3:54 AM,-16.6,-20.2,84,30.37,10.0,NW,3.5,-,N/A,,Scattered Clouds,310,2013-12-23 09:54:00
4:15 AM,-16.6,-20.2,84,30.38,10.0,NW,5.8,-,N/A,,Scattered Clouds,310,2013-12-23 10:15:00
4:34 AM,-16.6,-20.2,84,30.38,10.0,NW,4.6,-,N/A,,Scattered Clouds,310,2013-12-23 10:34:00
4:54 AM,-18.4,-23.8,76,30.39,10.0,NW,3.5,-,N/A,,Scattered Clouds,310,2013-12-23 10:54:00
5:15 AM,-18.4,-23.8,76,30.39,10.0,Calm,Calm,-,N/A,,Scattered Clouds,0,2013-12-23 11:15:00
5:34 AM,-20.2,-23.8,83,30.39,10.0,West,3.5,-,N/A,,Clear,280,2013-12-23 11:34:00
5:54 AM,-20.2,-25.6,76,30.40,10.0,Calm,Calm,-,N/A,,Clear,0,2013-12-23 11:54:00
6:15 AM,-22.0,-27.4,76,30.41,10.0,Calm,Calm,-,N/A,,Clear,0,2013-12-23 12:15:00
6:34 AM,-23.8,-27.4,83,30.41,10.0,Calm,Calm,-,N/A,,Clear,0,2013-12-23 12:34:00
6:54 AM,-23.8,-29.2,76,30.42,10.0,Calm,Calm,-,N/A,,Clear,0,2013-12-23 12:54:00
7:14 AM,-25.6,-29.2,83,30.42,10.0,Calm,Calm,-,N/A,,Clear,0,2013-12-23 13:14:00
7:34 AM,-25.6,-29.2,83,30.43,10.0,Calm,Calm,-,N/A,,Clear,0,2013-12-23 13:34:00
7:55 AM,-25.6,-31.0,76,30.43,10.0,Calm,Calm,-,N/A,,Clear,0,2013-12-23 13:55:00
8:14 AM,-25.6,-31.0,76,30.44,10.0,Calm,Calm,-,N/A,,Clear,0,2013-12-23 14:14:00
8:34 AM,-25.6,-31.0,76,30.44,7.0,Calm,Calm,-,N/A,,Clear,0,2013-12-23 14:34:00
8:55 AM,-23.8,-29.2,76,30.45,10.0,Calm,Calm,-,N/A,,Clear,0,2013-12-23 14:55:00
9:14 AM,-23.8,-29.2,76,30.45,10.0,Calm,Calm,-,N/A,,Clear,0,2013-12-23 15:14:00
9:34 AM,-20.2,-27.4,69,30.46,10.0,Calm,Calm,-,N/A,,Clear,0,2013-12-23 15:34:00
9:55 AM,-20.2,-25.6,76,30.47,10.0,Calm,Calm,-,N/A,,Clear,0,2013-12-23 15:55:00
10:14 AM,-20.2,-25.6,76,30.47,10.0,Calm,Calm,-,N/A,,Clear,0,2013-12-23 16:14:00
10:34 AM,-18.4,-25.6,70,30.47,10.0,Calm,Calm,-,N/A,,Clear,0,2013-12-23 16:34:00
10:55 AM,-16.6,-23.8,70,30.47,10.0,WSW,3.5,-,N/A,,Clear,240,2013-12-23 16:55:00
11:14 AM,-16.6,-23.8,70,30.47,10.0,WSW,3.5,-,N/A,,Clear,240,2013-12-23 17:14:00
11:35 AM,-14.8,-20.2,77,30.46,10.0,WSW,3.5,-,N/A,,Clear,240,2013-12-23 17:35:00
11:54 AM,-16.6,-23.8,70,30.46,10.0,WSW,5.8,-,N/A,,Clear,240,2013-12-23 17:54:00
12:14 PM,-14.8,-22.0,70,30.46,10.0,WSW,4.6,-,N/A,,Clear,240,2013-12-23 18:14:00
12:35 PM,-13.0,-20.2,70,30.45,10.0,WSW,3.5,-,N/A,,Clear,240,2013-12-23 18:35:00
12:54 PM,-13.0,-20.2,70,30.45,10.0,WSW,3.5,-,N/A,,Clear,240,2013-12-23 18:54:00
1:14 PM,-11.2,-18.4,70,30.44,10.0,WSW,3.5,-,N/A,,Clear,240,2013-12-23 19:14:00
1:35 PM,-11.2,-20.2,64,30.44,10.0,WSW,3.5,-,N/A,,Clear,240,2013-12-23 19:35:00
1:54 PM,-11.2,-18.4,70,30.44,10.0,SW,3.5,-,N/A,,Clear,230,2013-12-23 19:54:00
2:14 PM,-11.2,-18.4,70,30.44,10.0,WSW,4.6,-,N/A,,Clear,250,2013-12-23 20:14:00
2:35 PM,-11.2,-18.4,70,30.44,10.0,WSW,3.5,-,N/A,,Clear,240,2013-12-23 20:35:00
2:54 PM,-11.2,-18.4,70,30.43,10.0,Calm,Calm,-,N/A,,Clear,0,2013-12-23 20:54:00
3:14 PM,-11.2,-18.4,70,30.44,10.0,WSW,3.5,-,N/A,,Clear,250,2013-12-23 21:14:00
3:35 PM,-14.8,-20.2,77,30.45,10.0,Calm,Calm,-,N/A,,Clear,0,2013-12-23 21:35:00
3:54 PM,-14.8,-20.2,77,30.45,10.0,Calm,Calm,-,N/A,,Clear,0,2013-12-23 21:54:00
4:14 PM,-14.8,-20.2,77,30.44,10.0,Calm,Calm,-,N/A,,Clear,0,2013-12-23 22:14:00
4:34 PM,-16.6,-22.0,76,30.44,10.0,Calm,Calm,-,N/A,,Clear,0,2013-12-23 22:34:00
4:54 PM,-18.4,-23.8,76,30.44,10.0,Calm,Calm,-,N/A,,Clear,0,2013-12-23 22:54:00
5:14 PM,-20.2,-23.8,83,30.44,10.0,Calm,Calm,-,N/A,,Clear,0,2013-12-23 23:14:00
5:34 PM,-22.0,-27.4,76,30.44,10.0,Calm,Calm,-,N/A,,Clear,0,2013-12-23 23:34:00
5:54 PM,-23.8,-27.4,83,30.44,10.0,Calm,Calm,-,N/A,,Clear,0,2013-12-23 23:54:00
6:14 PM,-22.0,-27.4,76,30.45,10.0,Calm,Calm,-,N/A,,Clear,0,2013-12-24 00:14:00
6:35 PM,-23.8,-29.2,76,30.44,10.0,Calm,Calm,-,N/A,,Clear,0,2013-12-24 00:35:00
6:54 PM,-25.6,-32.8,69,30.42,10.0,Calm,Calm,-,N/A,,Clear,0,2013-12-24 00:54:00
7:14 PM,-25.6,-31.0,76,30.43,10.0,Calm,Calm,-,N/A,,Clear,0,2013-12-24 01:14:00
7:34 PM,-27.4,-32.8,75,30.43,10.0,Calm,Calm,-,N/A,,Clear,0,2013-12-24 01:34:00
7:54 PM,-27.4,-32.8,75,30.42,10.0,Calm,Calm,-,N/A,,Clear,0,2013-12-24 01:54:00
8:14 PM,-29.2,-34.6,75,30.43,10.0,Calm,Calm,-,N/A,,Clear,0,2013-12-24 02:14:00
8:35 PM,-29.2,-34.6,75,30.42,10.0,Calm,Calm,-,N/A,,Clear,0,2013-12-24 02:35:00
8:54 PM,-27.4,-34.6,69,30.41,10.0,Calm,Calm,-,N/A,,Clear,0,2013-12-24 02:54:00
9:14 PM,-29.2,-34.6,75,30.41,10.0,Calm,Calm,-,N/A,,Clear,0,2013-12-24 03:14:00
9:35 PM,-29.2,-34.6,75,30.39,10.0,SE,3.5,-,N/A,,Clear,130,2013-12-24 03:35:00
9:54 PM,-29.2,-36.4,68,30.38,10.0,Calm,Calm,-,N/A,,Clear,0,2013-12-24 03:54:00
10:14 PM,-29.2,-36.4,68,30.37,10.0,SE,3.5,-,N/A,,Clear,130,2013-12-24 04:14:00
10:35 PM,-29.2,-36.4,68,30.36,10.0,Calm,Calm,-,N/A,,Clear,0,2013-12-24 04:35:00
10:54 PM,-29.2,-36.4,68,30.36,10.0,Calm,Calm,-,N/A,,Clear,0,2013-12-24 04:54:00
11:14 PM,-29.2,-34.6,75,30.36,10.0,Calm,Calm,-,N/A,,Clear,0,2013-12-24 05:14:00
11:35 PM,-31.0,-36.4,75,30.35,10.0,Calm,Calm,-,N/A,,Clear,0,2013-12-24 05:35:00
11:54 PM,-31.0,-36.4,75,30.36,10.0,Calm,Calm,-,N/A,,Clear,0,2013-12-24 05:54:00